Regional Weather Roundup
Issued by NWS

Home | Current Version | Previous Version | Text Only | Print | Product List | Glossary Off
Versions: 1 2 3 4 5 6 7 8 9 10 11 12 13 14 15 16 17 18 19 20 21 22 23 24 25 26 27 28 29 30 31 32 33 34 35 36 37 38 39 40 41 42 43 44 45 46 47 48 49 50

000
ASUS43 KFSD 020702
RWRSD

WEATHER ROUNDUP FOR SOUTH DAKOTA
NATIONAL WEATHER SERVICE SIOUX FALLS SD
200 AM CDT SAT AUG 02 2014

NOTE: "FAIR" INDICATES FEW OR NO CLOUDS BELOW 12,000 FEET WITH NO
SIGNIFICANT WEATHER AND/OR OBSTRUCTIONS TO VISIBILITY.


SDZ001>005-009-010-012>017-020800-
NORTHWEST AND NORTH CENTRAL SOUTH DAKOTA

CITY           SKY/WX    TMP DP  RH WIND       PRES   REMARKS
BUFFALO          N/A     63  58  83 NE10      30.08R
FAITH            N/A     62  54  74 E8        30.08R
MOBRIDGE       CLOUDY    64  59  83 E8        30.05S
$$

SDZ012>016-024>037-041>051-057-063-072>074-020800-
SOUTHWEST AND SOUTH CENTRAL SOUTH DAKOTA

CITY           SKY/WX    TMP DP  RH WIND       PRES   REMARKS
RAPID CTY ARPT PTCLDY    66  48  52 NW7       30.10R
PIERRE         MOCLDY    64  61  90 E8        30.06R
CUSTER         PTCLDY    53  43  68 W5        30.26S
ELLSWORTH AFB  PTCLDY    70  47  44 N13       30.09R
PHILIP         CLEAR     68  57  68 VRB6      30.04F
PINE RIDGE     PTCLDY    59  53  80 W3        30.11R
WINNER         FAIR      66  59  78 SE14      30.09S
$$

SDZ004>011-016>023-039-040-020800-
NORTHEAST SOUTH DAKOTA

CITY           SKY/WX    TMP DP  RH WIND       PRES   REMARKS
ABERDEEN       CLOUDY    62  58  86 E6        30.08F
WATERTOWN      PTCLDY    63  58  83 SE3       30.11F
SISSETON         N/A     61  60  97 CALM      30.08F
$$

SDZ017-020-022-023-036>040-048>070-020800-
SOUTHEAST SOUTH DAKOTA

CITY           SKY/WX    TMP DP  RH WIND       PRES   REMARKS
SIOUX FALLS    MOCLDY    63  58  83 CALM      30.13R
HURON          CLOUDY    67  57  70 SE7       30.06F
CHAMBERLAIN    MOCLDY    64  60  85 S10       30.06S
MITCHELL       CLOUDY    69  59  70 S8        30.08F
YANKTON        CLOUDY    64  61  88 CALM      30.14F
$$

ABBREVIATIONS USED IN REMARKS
   TC - TEMPERATURE IN CELSIUS
  WCI - WIND CHILL INDEX
   HX - HEAT INDEX
  VSB - VISIBILITY



USA.gov is the U.S. government's official web portal to all federal, state and local government web resources and services.